Flag for U.S.A. Weather past 2 weeks in Boston, Massachusetts, U.S.A.

Now
68 °F

Overcast.


Feels Like: 68 °F
Forecast: 63 / 70 °F
Wind: 5 mph from South

Location: Logan International Airport

Current Time: Aug 2, 2014 at 3:30:47 AM

Latest Report: Aug 2, 2014 at 2:54 AM


Visibility: 10 mi

Pressure: 30.21 "Hg

Humidity: 90%

Dew point: 65 °F

Location of BostonLocation

Historic Weather in Boston — Graph

°F

Boston temperature yesterday

Maximum temperature yesterday: 81 °F (at 4:54 PM)
Minimum temperature yesterday: 66 °F (at 4:54 AM)
Average temperature yesterday: 72 °F

Past Weeks' High & Low Weather Summary

 TemperatureHumidityPressure
High91 °F (Jul 23, 2:54 PM)97% (Jul 21, 3:54 AM)30.27 "Hg (Jul 21, 3:54 AM)
Low61 °F (Jul 20, 3:54 AM)36% (Jul 26, 2:54 PM)29.44 "Hg (Jul 28, 5:54 PM)
Average71 °F71%29.98 "Hg
* Reported Jul 18 1:54 AM — Aug 2 1:54 AM, Boston, Weather by CustomWeather, © 2014

Note: Actual official high and low records may vary slightly from our data, if they occured in-between our weather recording intervals... More about our weather records

Advertising

Boston weather history for previous 24 hours

 ConditionsComfort  
Time TempWeatherWind HumidityBarometerVisibility
1:54 AM
Aug 2
70 °FPassing clouds.6 mph84%30.22 "Hg10 mi
12:54 AM70 °FPassing clouds.6 mph81%30.22 "Hg10 mi
11:54 PM
Aug 1
73 °FClear.7 mph69%30.22 "Hg10 mi
10:54 PM72 °FPassing clouds.6 mph73%30.22 "Hg10 mi
9:54 PM72 °FMostly cloudy.6 mph73%30.21 "Hg10 mi
8:54 PM74 °FMostly cloudy.10 mph71%30.21 "Hg10 mi
7:54 PM74 °FScattered clouds.9 mph71%30.22 "Hg10 mi
5:54 PM79 °FBroken clouds.14 mph58%30.20 "Hg10 mi
4:54 PM81 °FBroken clouds.17 mph58%30.17 "Hg10 mi
3:54 PM79 °FBroken clouds.13 mph62%30.16 "Hg10 mi
2:54 PM76 °FBroken clouds.13 mph72%30.18 "Hg10 mi
1:54 PM76 °FBroken clouds.12 mph74%30.19 "Hg10 mi
12:54 PM75 °FBroken clouds.15 mph74%30.21 "Hg10 mi
11:54 AM73 °FPartly sunny.18 mph74%30.22 "Hg10 mi
10:54 AM76 °FPartly sunny.8 mph72%30.22 "Hg8 mi
9:54 AM74 °FScattered clouds.5 mph76%30.21 "Hg10 mi
8:54 AM73 °FPartly sunny.No wind74%30.21 "Hg10 mi
7:54 AM70 °FPartly sunny.6 mph81%30.21 "Hg10 mi
6:54 AM67 °FScattered clouds.5 mph87%30.20 "Hg10 mi
5:54 AM66 °FPassing clouds.5 mph87%30.19 "Hg10 mi
4:54 AM66 °FPassing clouds.7 mph87%30.18 "Hg10 mi
3:54 AM67 °FPassing clouds.7 mph85%30.17 "Hg10 mi
Weather by CustomWeather, © 2014

See weather overviewHow to use our weather pages